CW3001 Weather Reports


time (UTC)temp
C
wind
direction
speed
KPH
gust
KPH
rain 1hr
cm
rain 24hr
cm
rain mn
cm
humidity
%
barometer
mb
20260506203325 10 39 0.0 0.0 0.00 0.05 0.05 74 1012.0
20260506202826 10 39 0.0 0.0 0.00 0.05 0.05 74 1011.9
20260506202618 10 39 0.0 0.0 0.00 0.05 0.05 73 1011.8
20260506202119 10 39 0.0 0.0 0.00 0.05 0.05 73 1011.9
20260506201340 10 39 0.0 1.6 0.00 0.05 0.05 72 1011.8
20260506200824 10 24 0.0 6.4 0.00 0.05 0.05 73 1011.8
20260506200339 10 16 3.2 6.4 0.00 0.05 0.05 72 1011.7
20260506195831 10 16 0.0 3.2 0.00 0.05 0.05 73 1011.7
20260506195327 11 13 0.0 3.2 0.00 0.05 0.05 73 1011.7
20260506194825 11 49 1.6 6.4 0.00 0.05 0.05 71 1011.8
20260506194324 11 52 3.2 8.0 0.00 0.05 0.05 70 1011.6
20260506194144 11 45 4.8 8.0 0.00 0.05 0.05 70 1011.6
20260506193323 11 56 3.2 11.3 0.00 0.05 0.05 70 1011.5
20260506193134 11 44 6.4 11.3 0.00 0.05 0.05 70 1011.5
20260506192323 11 44 3.2 8.0 0.00 0.05 0.05 71 1011.5
20260506191823 11 48 3.2 8.0 0.00 0.05 0.05 71 1011.5
20260506191324 11 42 4.8 11.3 0.00 0.05 0.05 70 1011.4
20260506190825 11 21 6.4 11.3 0.00 0.05 0.05 71 1011.3
20260506190323 11 58 4.8 11.3 0.00 0.05 0.05 71 1011.2
20260506185823 11 49 4.8 11.3 0.00 0.05 0.05 70 1011.2
20260506185323 11 48 8.0 11.3 0.00 0.05 0.05 70 1011.1
20260506185115 11 56 6.4 9.7 0.00 0.05 0.05 70 1010.9
20260506184617 11 49 4.8 11.3 0.00 0.05 0.05 70 1011.0
20260506184135 11 47 6.4 11.3 0.00 0.05 0.05 70 1011.0
20260506183322 11 48 4.8 11.3 0.00 0.05 0.05 70 1011.0
20260506182823 11 42 4.8 11.3 0.00 0.05 0.05 72 1010.8
20260506182332 11 28 4.8 11.3 0.00 0.05 0.05 71 1010.8
20260506181821 11 35 4.8 9.7 0.00 0.05 0.05 72 1010.9
20260506181331 11 30 4.8 9.7 0.00 0.05 0.05 71 1010.7
20260506180821 11 52 6.4 14.5 0.00 0.05 0.05 71 1010.7
20260506180322 11 52 6.4 16.1 0.00 0.05 0.05 72 1010.6
20260506175822 11 30 8.0 16.1 0.00 0.05 0.05 72 1010.6
20260506175322 11 39 6.4 11.3 0.00 0.05 0.05 72 1010.5
20260506175029 11 38 6.4 17.7 0.00 0.05 0.05 72 1010.3
20260506174938 11 34 6.4 11.3 0.00 0.05 0.05 73 1010.4
20260506174407 11 54 6.4 17.7 0.00 0.05 0.05 73 1010.3
20260506173319 11 51 8.0 17.7 0.00 0.05 0.05 73 1010.2
20260506172820 11 32 6.4 17.7 0.00 0.05 0.05 73 1010.2
20260506172321 11 42 8.0 14.5 0.00 0.05 0.05 73 1010.2
20260506171819 11 51 6.4 20.9 0.00 0.05 0.05 74 1010.2
20260506171320 11 69 8.0 22.5 0.00 0.05 0.05 73 1010.1
20260506170821 11 38 11.3 24.1 0.00 0.05 0.05 73 1010.1
20260506170319 11 82 12.9 27.4 0.00 0.05 0.05 72 1010.1
20260506165821 11 8 14.5 27.4 0.00 0.05 0.05 71 1010.1
20260506165321 11 69 14.5 20.9 0.00 0.05 0.05 70 1010.0
20260506164819 11 37 9.7 19.3 0.00 0.05 0.05 69 1010.1
20260506164320 11 35 9.7 22.5 0.00 0.05 0.05 70 1009.9
20260506163820 11 28 11.3 22.5 0.00 0.05 0.05 69 1009.7
20260506163321 12 41 8.0 20.9 0.00 0.05 0.05 68 1009.8
20260506162819 12 6 9.7 17.7 0.00 0.05 0.05 66 1009.8
20260506162332 12 24 8.0 17.7 0.00 0.05 0.05 66 1009.7
20260506162146 12 59 9.7 17.7 0.00 0.05 0.05 65 1009.7
20260506161318 12 54 9.7 17.7 0.00 0.05 0.05 65 1009.8
20260506160836 12 47 9.7 17.7 0.00 0.05 0.05 67 1009.7
20260506160628 12 39 8.0 19.3 0.00 0.05 0.05 66 1009.8
20260506155819 12 35 11.3 20.9 0.00 0.05 0.05 64 1009.8
20260506155318 12 47 9.7 20.9 0.00 0.05 0.05 64 1009.7
20260506154820 12 39 12.9 22.5 0.00 0.05 0.05 63 1009.8
20260506154649 12 47 12.9 22.5 0.00 0.05 0.05 63 1009.8
20260506153818 12 24 11.3 25.7 0.00 0.05 0.05 63 1009.7
20260506153318 12 48 16.1 25.7 0.00 0.05 0.05 63 1009.6
20260506152817 12 25 12.9 24.1 0.00 0.05 0.05 63 1009.6
20260506152317 12 31 11.3 24.1 0.00 0.05 0.05 62 1009.6
20260506151817 12 24 14.5 24.1 0.00 0.05 0.05 62 1009.6
20260506151317 12 34 12.9 20.9 0.00 0.05 0.05 61 1009.5
20260506151104 12 27 11.3 20.9 0.00 0.05 0.05 62 1009.6
20260506150315 13 34 9.7 24.1 0.00 0.05 0.05 60 1009.4
20260506145925 13 45 14.5 27.4 0.00 0.05 0.05 58 1009.4
20260506145905 13 45 9.7 27.4 0.00 0.05 0.05 60 1009.5
20260506144815 13 34 11.3 25.7 0.00 0.05 0.05 59 1009.4
20260506144316 13 24 9.7 25.7 0.00 0.05 0.05 59 1009.3
20260506143818 13 47 12.9 24.1 0.00 0.05 0.05 58 1009.3
20260506143331 13 39 9.7 22.5 0.00 0.05 0.05 58 1009.4
20260506142832 13 35 9.7 22.5 0.00 0.05 0.05 63 1009.2
20260506142315 13 24 6.4 19.3 0.00 0.05 0.05 63 1009.3
20260506141815 13 13 9.7 19.3 0.00 0.05 0.05 62 1009.2
20260506141317 13 45 11.3 20.9 0.00 0.05 0.05 63 1009.2
20260506140816 13 52 9.7 22.5 0.00 0.05 0.05 65 1009.2
20260506140315 13 31 11.3 24.1 0.00 0.05 0.05 62 1009.3
20260506140141 13 18 12.9 25.7 0.00 0.05 0.05 63 1009.2
20260506135315 13 71 14.5 25.7 0.00 0.05 0.05 61 1009.2
20260506134816 13 23 14.5 25.7 0.00 0.05 0.05 64 1009.0
20260506134314 14 25 11.3 17.7 0.00 0.05 0.05 64 1009.1
20260506133814 14 41 12.9 24.1 0.00 0.05 0.05 61 1009.2
20260506133314 14 100 12.9 24.1 0.00 0.05 0.05 60 1009.1
20260506132814 14 34 11.3 25.7 0.00 0.05 0.05 61 1009.1
20260506132315 14 44 12.9 25.7 0.00 0.05 0.05 59 1009.1
20260506131814 14 0 9.7 24.1 0.00 0.05 0.05 61 1008.9
20260506131313 15 61 14.5 24.1 0.00 0.05 0.05 57 1009.0
20260506130817 14 51 12.9 24.1 0.00 0.05 0.05 60 1008.9
20260506130405 14 100 9.7 24.1 0.00 0.05 0.05 57 1008.7
20260506130347 15 39 12.9 24.1 0.00 0.05 0.05 57 1008.7
20260506125313 14 21 11.3 22.5 0.00 0.05 0.05 56 1008.7
20260506124813 14 51 8.0 17.7 0.00 0.05 0.05 57 1008.7
20260506124436 14 68 8.0 20.9 0.00 0.05 0.05 58 1008.7
20260506124358 14 37 8.0 20.9 0.00 0.05 0.05 58 1008.8
20260506123314 14 76 11.3 20.9 0.00 0.05 0.05 55 1008.8
20260506122814 14 56 9.7 20.9 0.03 0.05 0.05 57 1008.7
20260506122600 14 0 9.7 24.1 0.03 0.05 0.05 58 1008.7
20260506121811 14 7 9.7 24.1 0.03 0.05 0.05 59 1008.7
20260506121312 14 41 9.7 17.7 0.03 0.05 0.05 62 1008.7
20260506120813 14 37 11.3 19.3 0.03 0.05 0.05 61 1008.6
20260506120313 14 63 9.7 19.3 0.03 0.05 0.05 61 1008.6
20260506115811 14 20 9.7 20.9 0.03 0.03 0.05 65 1008.6
20260506115630 14 73 9.7 20.9 0.03 0.03 0.05 60 1008.5
20260506114811 14 25 11.3 17.7 0.03 0.03 0.05 62 1008.4
20260506114312 14 44 9.7 19.3 0.03 0.03 0.05 62 1008.5
20260506113812 14 41 9.7 22.5 0.03 0.03 0.05 64 1008.4
20260506113311 13 14 12.9 24.1 0.03 0.03 0.03 65 1008.5
20260506112811 13 37 12.9 25.7 0.00 0.03 0.03 64 1008.4
20260506112349 13 38 11.3 20.9 0.00 0.03 0.03 66 1008.5
20260506112335 13 31 11.3 25.7 0.00 0.03 0.03 63 1008.6
20260506111329 13 0 12.9 20.9 0.00 0.03 0.03 67 1008.5
20260506111057 13 20 14.5 20.9 0.00 0.03 0.03 66 1008.5
20260506110313 13 25 11.3 20.9 0.00 0.03 0.03 68 1008.5
20260506105810 13 35 11.3 20.9 0.00 0.03 0.03 67 1008.7
20260506105323 13 10 11.3 20.9 0.00 0.03 0.03 70 1008.5
20260506105155 13 32 8.0 22.5 0.00 0.03 0.03 69 1008.6
20260506104309 13 18 11.3 22.5 0.00 0.03 0.03 69 1008.4
20260506103810 13 18 11.3 22.5 0.00 0.03 0.03 69 1008.4
20260506103310 13 13 9.7 20.9 0.00 0.03 0.03 67 1008.4
20260506103052 13 35 12.9 20.9 0.00 0.03 0.03 68 1008.5
20260506102310 13 23 9.7 22.5 0.00 0.03 0.03 70 1008.4
20260506102052 13 23 9.7 22.5 0.00 0.03 0.03 72 1008.3
20260506101309 13 59 8.0 16.1 0.00 0.03 0.03 72 1008.3
20260506100809 13 0 6.4 20.9 0.00 0.03 0.03 74 1008.4
20260506100309 13 31 11.3 20.9 0.00 0.03 0.03 74 1008.4
20260506095822 13 24 9.7 17.7 0.00 0.03 0.03 76 1008.2
20260506095309 13 7 9.7 17.7 0.00 0.03 0.03 77 1008.2
20260506094808 13 11 12.9 17.7 0.00 0.03 0.03 77 1008.2
20260506094557 12 31 8.0 14.5 0.00 0.03 0.03 78 1008.3
20260506093809 12 7 6.4 14.5 0.00 0.03 0.03 79 1008.3
20260506093307 12 25 8.0 20.9 0.00 0.03 0.03 80 1008.3
20260506092807 12 20 9.7 20.9 0.00 0.03 0.03 80 1008.2
20260506092307 12 10 11.3 22.5 0.00 0.03 0.03 80 1008.2
20260506091813 12 3 12.9 22.5 0.00 0.03 0.03 80 1008.2
20260506091551 12 11 11.3 17.7 0.00 0.03 0.03 81 1008.3
20260506090806 12 31 9.7 16.1 0.00 0.03 0.03 81 1008.2
20260506090307 12 7 8.0 16.1 0.00 0.03 0.03 82 1008.3
20260506085807 12 10 8.0 16.1 0.00 0.03 0.03 82 1008.2
20260506085308 12 24 9.7 17.7 0.00 0.03 0.03 82 1008.2
20260506085049 12 28 8.0 17.7 0.00 0.03 0.03 82 1008.2
20260506084306 11 16 8.0 20.9 0.00 0.03 0.03 82 1008.1
20260506084051 11 42 11.3 20.9 0.00 0.03 0.03 82 1008.0
20260506083308 11 18 9.7 16.1 0.00 0.03 0.03 83 1008.1
20260506082808 11 4 9.7 17.7 0.00 0.03 0.03 84 1007.9
20260506082306 11 31 8.0 19.3 0.00 0.03 0.03 85 1008.0
20260506081806 11 38 6.4 19.3 0.00 0.03 0.03 85 1008.0
20260506081307 11 0 6.4 17.7 0.00 0.03 0.03 86 1008.1
20260506080806 11 18 11.3 17.7 0.00 0.03 0.03 86 1008.2
20260506080307 10 0 6.4 16.1 0.00 0.03 0.03 87 1008.1
20260506073304 10 18 8.0 16.1 0.00 0.03 0.03 88 1007.9
20260506072804 10 11 8.0 16.1 0.00 0.03 0.03 88 1007.9
20260506072305 10 6 8.0 16.1 0.00 0.03 0.03 89 1007.9
20260506071804 10 17 8.0 16.1 0.00 0.03 0.03 89 1008.0
20260506071522 9 0 9.7 14.5 0.00 0.03 0.03 90 1008.0
20260506071412 10 3 9.7 16.1 0.00 0.03 0.03 89 1008.0
20260506071141 10 13 8.0 16.1 0.00 0.03 0.03 89 1007.9
20260506062305 8 1 8.0 9.7 0.00 0.03 0.03 92 1007.8
20260506061804 8 16 6.4 11.3 0.00 0.03 0.03 92 1007.8
20260506061319 8 23 6.4 14.5 0.00 0.03 0.03 92 1007.7
20260506060803 8 16 8.0 14.5 0.00 0.03 0.03 92 1007.7
20260506060303 8 7 8.0 14.5 0.00 0.03 0.03 92 1007.7
20260506051302 8 7 11.3 17.7 0.00 0.03 0.03 92 1007.7
20260506051048 8 14 9.7 16.1 0.00 0.03 0.03 92 1007.7
20260506050301 8 358 8.0 20.9 0.00 0.03 0.03 92 1007.7
20260506045055 8 31 8.0 19.3 0.00 0.03 0.03 92 1007.6
20260506044315 8 25 9.7 17.7 0.00 0.03 0.03 92 1007.6
20260506043800 8 14 8.0 16.1 0.00 0.03 0.03 92 1007.5
20260506043614 8 25 6.4 19.3 0.00 0.03 0.03 92 1007.5
20260506042800 8 16 12.9 20.9 0.00 0.03 0.03 92 1007.6
20260506042300 8 7 11.3 20.9 0.00 0.03 0.03 92 1007.5
20260506041813 8 11 8.0 19.3 0.03 0.03 0.03 92 1007.5
20260506041313 8 24 9.7 17.7 0.03 0.03 0.03 91 1007.5
20260506040800 8 17 9.7 17.7 0.03 0.03 0.03 91 1007.5
20260506040259 8 28 11.3 17.7 0.03 0.03 0.03 91 1007.7
20260506035759 8 1 9.7 17.7 0.03 0.00 0.03 91 1007.6
20260506035259 8 0 9.7 17.7 0.03 0.00 0.03 91 1007.6
20260506034759 8 27 9.7 17.7 0.03 0.00 0.03 91 1007.7
20260506034312 8 37 8.0 17.7 0.03 0.00 0.03 91 1007.6
20260506033759 8 13 9.7 19.3 0.03 0.00 0.03 91 1007.7
20260506033259 8 0 9.7 19.3 0.03 0.00 0.03 91 1007.8
20260506032759 8 10 9.7 14.5 0.03 0.00 0.03 91 1007.8
20260506032301 8 353 6.4 16.1 0.03 0.00 0.03 90 1007.8
20260506031759 8 32 8.0 16.1 0.00 0.00 0.00 90 1007.8
20260506031259 8 13 8.0 16.1 0.00 0.00 0.00 90 1007.8
20260506030800 8 38 8.0 16.1 0.00 0.00 0.00 89 1007.9
20260506030628 8 17 4.8 14.5 0.00 0.00 0.00 89 1007.9
20260506025800 8 34 6.4 16.1 0.00 0.00 0.00 88 1007.9
20260506025300 9 37 8.0 16.1 0.00 0.00 0.00 88 1007.9
20260506024758 9 28 9.7 17.7 0.00 0.00 0.00 87 1008.0
20260506024258 9 16 6.4 19.3 0.00 0.00 0.00 86 1007.9
20260506023758 9 23 8.0 19.3 0.00 0.00 0.00 86 1008.0
20260506023547 9 0 6.4 16.1 0.00 0.00 0.00 87 1007.9
20260506022846 9 20 8.0 16.1 0.00 0.00 0.00 86 1008.0
20260506022257 9 23 8.0 16.1 0.00 0.00 0.00 87 1008.0
20260506022104 9 14 9.7 16.1 0.00 0.00 0.00 86 1008.0
20260506021257 9 45 9.7 16.1 0.00 0.00 0.00 86 1008.1
20260506020808 9 11 8.0 19.3 0.00 0.00 0.00 85 1008.1
20260506020256 9 17 11.3 19.3 0.00 0.00 0.00 84 1008.1
20260506015812 9 21 6.4 14.5 0.00 0.00 0.00 84 1008.1
20260506015611 9 14 8.0 14.5 0.00 0.00 0.00 84 1008.1
20260506014756 9 13 6.4 16.1 0.00 0.00 0.00 84 1008.1
20260506014256 9 25 11.3 17.7 0.00 0.00 0.00 84 1008.0
20260506014152 9 30 6.4 16.1 0.00 0.00 0.00 84 1008.2
20260506014144 9 20 9.7 17.7 0.00 0.00 0.00 84 1008.2
20260506012757 9 27 8.0 17.7 0.00 0.00 0.00 83 1008.2
20260506012257 9 59 8.0 17.7 0.00 0.00 0.00 83 1008.2
20260506011755 9 28 4.8 17.7 0.00 0.00 0.00 83 1008.2
20260506011255 9 17 6.4 19.3 0.00 0.00 0.00 83 1008.2
20260506010755 9 34 9.7 19.3 0.00 0.00 0.00 82 1008.2
20260506010255 9 30 9.7 19.3 0.00 0.00 0.00 82 1008.2
20260506005755 10 21 11.3 19.3 0.00 0.00 0.00 82 1008.2
20260506005257 10 23 12.9 19.3 0.00 0.00 0.00 82 1008.3
20260506004756 10 41 9.7 17.7 0.00 0.00 0.00 81 1008.3
20260506004555 10 8 6.4 17.7 0.00 0.00 0.00 81 1008.4
20260506003754 10 23 6.4 14.5 0.00 0.00 0.00 81 1008.4
20260506003254 10 0 9.7 19.3 0.00 0.00 0.00 81 1008.4
20260506002754 10 0 8.0 19.3 0.00 0.00 0.00 81 1008.4
20260506002257 10 10 9.7 17.7 0.00 0.00 0.00 81 1008.5
20260506001754 10 30 9.7 17.7 0.00 0.00 0.00 81 1008.5
20260506001254 10 13 9.7 17.7 0.00 0.03 0.00 81 1008.5
20260506000755 10 20 8.0 14.5 0.00 0.03 0.00 81 1008.6
20260506000255 10 20 6.4 20.9 0.00 0.03 0.00 81 1008.7
20260505235758 10 17 6.4 20.9 0.00 0.03 0.00 80 1008.7
20260505235254 10 25 6.4 17.7 0.00 0.05 0.00 80 1008.8
20260505234834 10 4 9.7 16.1 0.00 0.05 0.00 80 1008.7
20260505234820 10 23 6.4 17.7 0.00 0.05 0.00 81 1008.7
20260505233752 10 32 6.4 16.1 0.00 0.08 0.00 81 1008.8
20260505233254 10 35 9.7 16.1 0.00 0.08 0.00 80 1008.8
20260505232806 10 0 8.0 19.3 0.00 0.08 0.00 80 1008.7
20260505232253 10 24 6.4 19.3 0.00 0.08 0.00 80 1008.8
20260505231753 10 8 6.4 14.5 0.00 0.08 0.00 80 1008.8
20260505231252 10 7 8.0 17.7 0.00 0.08 0.00 80 1008.8
20260505230752 10 11 6.4 17.7 0.00 0.08 0.00 79 1008.9
20260505230252 10 21 9.7 16.1 0.00 0.08 0.00 79 1008.9
20260505225752 10 30 8.0 16.1 0.00 0.08 0.00 80 1008.9
20260505225250 10 38 8.0 16.1 0.00 0.08 0.00 79 1008.9
20260505224752 10 16 8.0 16.1 0.00 0.08 0.00 79 1009.0
20260505224251 10 13 8.0 17.7 0.00 0.08 0.00 79 1009.0
20260505223752 10 30 9.7 17.7 0.00 0.08 0.00 80 1009.1
20260505223251 10 18 11.3 17.7 0.00 0.08 0.00 79 1009.0
20260505222752 10 28 9.7 17.7 0.00 0.08 0.00 80 1009.0
20260505222252 10 42 6.4 16.1 0.00 0.08 0.00 80 1009.0
20260505221750 10 27 9.7 19.3 0.00 0.08 0.00 80 1009.0
20260505221251 10 7 9.7 19.3 0.00 0.10 0.00 79 1009.0
20260505220913 10 39 6.4 14.5 0.00 0.10 0.00 80 1009.1
20260505220846 10 28 9.7 16.1 0.00 0.10 0.00 80 1009.1
20260505215751 10 39 6.4 14.5 0.00 0.13 0.13 80 1009.1
20260505215250 10 28 6.4 17.7 0.00 0.13 0.13 80 1009.2
20260505214749 11 34 9.7 19.3 0.00 0.15 0.13 80 1009.2
20260505214250 11 21 6.4 19.3 0.00 0.18 0.13 81 1009.4
20260505213750 11 11 4.8 9.7 0.00 0.23 0.13 81 1009.3
20260505213249 11 18 6.4 11.3 0.00 0.33 0.13 81 1009.3
20260505212750 11 28 8.0 14.5 0.00 0.43 0.13 80 1009.3
20260505212250 11 24 6.4 19.3 0.00 0.51 0.13 80 1009.3
20260505211751 11 28 8.0 19.3 0.00 0.51 0.13 80 1009.3
20260505211249 11 38 8.0 17.7 0.00 0.58 0.13 79 1009.4
20260505211153 11 49 8.0 17.7 0.00 0.64 0.13 79 1009.3
20260505210250 11 8 8.0 17.7 0.00 0.74 0.13 79 1009.4
20260505205750 11 30 8.0 17.7 0.00 0.91 0.13 79 1009.4
20260505205248 11 42 9.7 17.7 0.00 1.02 0.13 78 1009.5
20260505204748 11 3 9.7 17.7 0.00 1.09 0.13 78 1009.3
20260505204248 11 39 8.0 16.1 0.00 1.17 0.13 78 1009.4